Regional Weather Roundup
Issued by NWS Wakefield, VA

Home | Current Version | Previous Version | Graphics & Text | Print | Product List | Glossary On
Versions: 1 2 3 4 5 6 7 8 9 10 11 12 13 14 15 16 17 18 19 20 21 22 23 24 25 26 27 28 29 30 31 32 33 34 35 36 37 38 39 40 41 42 43 44 45 46 47 48 49 50
000
ASUS41 KAKQ 232115
RWRAKQ

REGIONAL WEATHER ROUNDUP
NATIONAL WEATHER SERVICE WAKEFIELD VA
500 PM EDT SAT MAY 23 2015

Note: "fair" indicates few or no clouds below 12,000 feet with no
significant weather and/or obstructions to visibility. * = Denotes
station may not report precipitation (e.g., rain,snow,etc.),
thunder or fog.

VAZ042-051-052>054-056-232200-
NORTHERN VIRGINIA

CITY           SKY/WX    TMP DP  RH WIND       PRES   REMARKS
WASH NATIONAL  SUNNY     73  41  31 S12       30.39F
DULLES         MOSUNNY   72  35  25 CALM      30.38F
FORT BELVOIR   SUNNY     72  38  28 S8        30.38F
QUANTICO       SUNNY     71  40  32 S7        30.40F
FREDERICKSBRG* SUNNY     75  42  30 CALM      30.38F
STAFFORD*      SUNNY     73  34  24 SW3       30.43F
WARRENTON      SUNNY     74  44  34 SE6       30.38F
CULPEPER*      SUNNY     71  40  32 CALM      30.39F
MANASSAS*      SUNNY     72  37  28 CALM      30.38F
LEESBURG*      SUNNY     72  39  30 CALM      30.39S
WINCHESTER     SUNNY     73  30  20 CALM      30.36F
FRONT ROYAL*   FAIR      72  43  35 E7        30.36S
LURAY*         FAIR      77  45  31 SE6       30.36F
$$

VAZ048-049-060>072-079>083-232200-
CENTRAL AND SOUTH CENTRAL VIRGINIA

CITY           SKY/WX    TMP DP  RH WIND       PRES   REMARKS
RICHMOND       MOSUNNY   75  40  28 CALM      30.39F
CHESTERFIELD*  NOT AVBL
PETERSBURG*    SUNNY     75  40  28 E3        30.40S
HANOVER        SUNNY     74  41  30 CALM      30.40F
TAPPAHANNOCK*  SUNNY     73  29  19 CALM      30.41S
QUINTON*       FAIR      73  41  32 CALM      30.40F
CHARLOTTSVILLE SUNNY     73  44  35 SW6       30.37F
GORDONSVILLE*  FAIR      72  43  35 CALM      30.38S
ORANGE*        SUNNY     73  43  33 CALM      30.39F
LOUISA*        SUNNY     73  45  35 W5        30.38F
BUMPASS*       FAIR      73  43  34 CALM      30.39F
FARMVILLE*     MOSUNNY   75  47  36 SW6       30.37F
CREWE*         FAIR      73  45  37 CALM      30.39F
FORT PICKETT*  FAIR      73  46  38 SW7       30.40S
CHASE CITY*    FAIR      77  50  38 SE3       30.39F
CLARKSVILLE*   FAIR      73  46  38 SE3       30.40S
SOUTH HILL*    SUNNY     74  46  36 CALM      30.45S
LAWRENCEVILLE* FAIR      73  46  38 S3        30.39S
EMPORIA*       SUNNY     75  45  33 CALM      30.41S
$$

VAZ088>098-232200-
SOUTHEAST VIRGINIA

CITY           SKY/WX    TMP DP  RH WIND       PRES   REMARKS
NORFOLK        SUNNY     68  43  40 NE7       30.41F
VIRGINIA BEACH MOSUNNY   67  47  48 E10       30.41F
NORFOLK NAVAL  MOSUNNY   72  44  36 E6        30.43S
WEST POINT*    SUNNY     75  30  19 CALM      30.42S
SALUDA*        FAIR      66  42  41 E9G16     30.41F
NEWPORT NEWS   SUNNY     74  43  32 E9        30.41F
LANGLEY AFB    SUNNY     68  48  49 SE7       30.41S
FORT EUSTIS    SUNNY     71  51  48 S9        30.39S
WILLIAMSBURG*  SUNNY     77  54  44 SE6       30.41F
HR EXEC AP*    FAIR      73  46  38 CALM      30.42S
FRANKLIN*      SUNNY     75  43  31 N6        30.39F
WAKEFIELD      SUNNY     76  42  29 CALM      30.40F
$$

VAZ020-022-025-037-045-232200-
WEST CENTRAL AND SOUTHWEST VIRGINIA

CITY           SKY/WX    TMP DP  RH WIND       PRES   REMARKS
STAUNTON*      MOSUNNY   73  46  37 SW12      30.38F
WAYNESBORO*    MOCLDY    68  47  46 SE8G17    30.38S
HOT SPRINGS VA PTSUNNY   65  48  54 S8        30.42F
LYNCHBURG      MOSUNNY   74  46  36 S8        30.40F
DANVILLE       SUNNY     76  47  35 VRB5      30.39F
SOUTH BOSTON*  FAIR      75  45  34 SW3       30.39F
MARTINSVILLE   SUNNY     78  46  31 CALM      30.41F
ROANOKE        MOSUNNY   75  49  39 S10G22    30.38F
BLACKSBURG     MOSUNNY   72  48  43 S6        30.42F
DUBLIN*        SUNNY     76  43  30 S3        30.39F
MARION*        SUNNY     76  39  26 CALM      30.40F
HILLSVILLE*    SUNNY     71  45  39 S6        30.42F
RICHLANDS*     FAIR      73  38  28 SW3       30.39F
WISE*          SUNNY     77  36  22 CALM      30.40F
ABINGDON*      SUNNY     78  40  25 W3        30.36F
$$

MDZ021>025-VAZ099-100-232200-
SOUTHERN MARYLAND AND THE DELMARVA PENINSULA

CITY           SKY/WX    TMP DP  RH WIND       PRES   REMARKS
PATUXENT RIVER MOSUNNY   66  36  32 SE9       30.40F
BAY BRIDGE APT   N/A    N/A N/A N/A SE7       30.40F
LEONARDTOWN    SUNNY     68  34  28 S6        30.41F
DOVER          SUNNY     70  38  31 VRB5      30.36F
GEORGETOWN     SUNNY     69  31  24 W8        30.40S
EASTON         MOSUNNY   70  36  28 VRB6      30.44F
CAMBRIDGE      SUNNY     72  32  23 N3        30.40F
SALISBURY      SUNNY     68  46  45 S8        30.39F
OCEAN CITY     SUNNY     59  43  55 SE7       30.42F
WALLOPS ISLAND SUNNY     61  46  57 S10       30.43S
ACCOMACK*      SUNNY     66  50  55 SE7       30.42R
$$

NCZ012>017-030>032-232200-
NORTH CENTRAL AND EASTERN NORTH CAROLINA

CITY           SKY/WX    TMP DP  RH WIND       PRES   REMARKS
ROANOKE RAPIDS FAIR      75  50  41 N5        30.39S
RALEIGH        MOSUNNY   77  44  30 CALM      30.38F
ELIZABETH CITY SUNNY     70  49  47 NE9       30.41F
AHOSKIE*       SUNNY     75  48  38 N6        30.39S
EDENTON*       SUNNY     71  52  50 SE9       30.41S
CURRITUCK*     SUNNY     67  43  41 E6        30.43S
KILL DEVIL HLS SUNNY     64  51  62 E7        30.41F
MANTEO         SUNNY     65  51  61 NE9       30.42F
CAPE HATTERAS  SUNNY     70  44  39 NE12      30.41F
TARBORO*       FAIR      80  49  33 E3        30.38F
GOLDSBORO      SUNNY     80  48  32 VRB1      30.34F
WASHINGTON     SUNNY     75  48  37 E5        30.39S
GREENVILLE     MOSUNNY   77  52  41 E8        30.39R
NEW BERN       SUNNY     78  55  44 E8        30.39F
WILMINGTON     SUNNY     77  48  35 SE12      30.38S
$$

VAZ048-232200-
ELSEWHERE

CITY           SKY/WX    TMP DP  RH WIND       PRES   REMARKS
HARRISBURG PA  MOSUNNY   70  30  22 VRB3      30.36F
BALTIMORE      MOSUNNY   71  34  25 VRB7      30.37F
ANNAPOLIS      SUNNY     65  38  36 SE10      30.40S
ANDREWS AFB    SUNNY     72  37  27 NW3       30.38F
PHILADELPHIA   SUNNY     70  28  21 SW13      30.37F
HENDERSON NC   SUNNY     76  43  30 NE5       30.39F
GREENSBORO     MOSUNNY   76  46  34 S6        30.37F
ROCKY MOUNT    SUNNY     79  47  32 NE3       30.38F
$$

VAZ100-232200-
MARINE

STATION/POSITION TIME  TEMP    WIND        PRES    WAVE   SWELL
                       AIR SEA DIR/SP/G            HT/PER HT/PER
                 (UTC) (F)     (DEG/KT/KT) (MB)    (FT/S) (FT/S)
BRANDYWINE LGT   2000   61 64   40/  3/  4 1029.7F
CAPE MAY NJ      2000   63 66  320/  6/  8 1029.2F
LEWES DE         2000   60 64   60/  5/  6 1029.5F
15NM E FENWICK I 2050   57 60              1030.0F   2/ 6
OCEAN-CITY-INLET 2000   59 60  140/  5/  8 1029.9F
WACHAPREAGUE VA  2000   62 71  150/  6/ 10 1030.5F
THOMAS POINT MD  2100   64 66  170/  6/  7 1030.0F
GOOSES REEF MD   2100   64 65  130/  6/  6 1030.4F   1
SOLOMONS ISLAND  2000      69                N/A
BISHOPS HEAD MD  2000   65 72  210/  7/  9 1029.5F
PINEY POINT MD   2000          160/  8/  9   N/A
CAMBRIDGE MD     2000   65 69   20/  3/  5 1029.8F
LEWISETTA VA     2000   65 69              1029.4F
RAPPAHANNOCK LGT 2000           CALM  /  1 1030.8F
STINGRAY PT      2100   64 70  140/  4/  6 1030.0R   1
YORK RVR RNG VA  2000   65     110/  6/  7 1029.6F
YORKTOWN VA      2000   65 71   80/  7/  9 1029.9F
JAMESTOWN VA     2100   71 76  150/  4/  6 1028.5F
DOMINION TERM VA 2000   65      90/  7/ 10 1030.2F
KIPTOPEKE VA     2000      73  170/  9/ 11   N/A
CHES BAY BRIDGE  2000   62 67   80/  5/  7 1030.0F
CAPE HENRY VA    2000   62      80/  7/  9 1029.0F
CHESAPEAKE LGHT  2000   59      90/  8/  8 1031.1F
WILLOUBY STN VA  2000   63     100/  8/  9 1030.9F
CAPE HENRY BUOY  2028      63                N/A     2/ 5
1ST LANDING BUOY 2100      68              1029.9F
CAPE CHARLES BUO 2026      65                N/A     2/ 4   2/ 4
OFFSHORE WE BUOY 2011      61                N/A     2/ 5   2/ 5
64NM E OF VA BCH 2050   61 61   20/ 10/ 14 1029.6F   3/ 4   2/ 8
DUCK PIER NC     2000   61 65   40/ 10/ 12 1029.6F
44100 DUCK FRF   2024      61                N/A     3/ 4
44056 DUCK FRF   2011      63                N/A     2/ 4
OREGON INLET NC  2000   63 71   10/ 11/ 15 1030.4F
HATTERAS NC      2000   69 73   50/ 10/ 16 1029.3F
DIAMOND SHLS NC  2050   69 77   30/ 16/ 17 1029.2F   3/ 9   2/ 9
CAPE LOOKOUT NC  2100   70      70/ 15/ 16 1028.8F
$$



USA.gov is the U.S. government's official web portal to all federal, state and local government web resources and services.